Location: ????????
(41.2031°N, 22.5756°E)
Time: 06:09:24
(UTC+00:00)

X-37B - Pass Details

Date: 01 December 2020
Orbit: 384 x 390 km, 45.0° (Epoch: 02 January)

Event Time Altitude Azimuth Distance (km) Brightness Sun altitude
Rises 15:49:04 0° 254° (WSW) 2,256 6.8 -8.9°
Reaches altitude 10° 15:51:09 10° 257° (WSW) 1,406 5.0 -9.3°
Maximum altitude 15:54:18 70° 342° (NNW) 412 0.7 -9.9°
Enters shadow 15:56:44 16° 65° (ENE) 1,115 2.2 -10.3°
